Tracking 26492 objects as of 8-Dec-2022
HD Live streaming from Space Station
objects crossing your sky now

STARLINK-4792

Track STARLINK-4792 now!
10-day predictions
STARLINK-4792 is classified as:


NORAD ID: 53862
Int'l Code: 2022-114AW
Perigee: 347.5 km
Apogee: 357.6 km
Inclination: 53.2 °
Period: 91.4 minutes
Semi major axis: 6723 km
RCS: Unknown
Launch date: September 19, 2022
Source: United States (US)
Launch site: AIR FORCE EASTERN TEST RANGE (AFETR)
aabbcc
Your satellite tracking list
Your tracking list is empty




NASA's NSSDC Master Catalog

Two Line Element Set (TLE):
1 53862U 22114AW  22342.15496314  .00628922  00000-0  38922-2 0  9995
2 53862  53.2137 222.2991 0007522 323.3265  36.7240 15.74735973 13180
Source of the keplerian elements: AFSPC